Flag for Brunei Weather past 2 weeks in Bandar Seri Begawan, Brunei

Now
73 °F

Light rain. Partly cloudy.


Feels Like: 68 °F
Forecast: 76 / 86 °F
Wind: 8 mph from Southwest

Location: Brunei Airport

Current Time: Aug 5, 2015 at 6:20:22 AM

Latest Report: Aug 5, 2015 at 5:30 AM


Visibility: 4 mi

Pressure: 29.83 "Hg

Humidity: 100%

Dew point: 73 °F

Location of Bandar Seri BegawanLocation

Historic Weather in Bandar Seri Begawan — Graph

°F

Bandar Seri Begawan temperature yesterday

Maximum temperature yesterday: 88 °F (at 11:30 AM)
Minimum temperature yesterday: 73 °F (at 10:00 PM)
Average temperature yesterday: 79 °F

Past Weeks' High & Low Weather Summary

 TemperatureHumidityPressure
High91 °F (Jul 21, 1:00 PM)100% (Jul 21, 5:00 AM)29.98 "Hg (Jul 21, 5:00 AM)
Low73 °F (Aug 4, 10:00 PM)56% (Jul 23, 12:30 PM)29.77 "Hg (Aug 4, 3:00 PM)
Average81 °F86%29.88 "Hg
* Reported Jul 21 5:00 AM — Aug 5 5:00 AM, Bandar Seri Begawan, Weather by CustomWeather, © 2015

Note: Actual official high and low records may vary slightly from our data, if they occured in-between our weather recording intervals... More about our weather records

Advertising

Bandar Seri Begawan weather history for previous 24 hours

 ConditionsComfort  
Time TempWeatherWind HumidityBarometerVisibility
5:00 AM
Wed, Aug 5
75 °FLight rain. Partly cloudy.7 mph94%29.83 "Hg4 mi
4:30 AM73 °FHeavy rain. Partly cloudy.9 mph100%29.83 "Hg1 mi
4:00 AM75 °FLight rain. Partly cloudy.5 mph100%29.83 "Hg4 mi
3:30 AM75 °FHeavy rain. Partly cloudy.7 mph100%29.83 "Hg1 mi
3:00 AM75 °FLight rain. Passing clouds.7 mph100%29.83 "Hg4 mi
2:30 AM75 °FLight rain. Passing clouds.8 mph100%29.83 "Hg4 mi
2:00 AM75 °FLight rain. Passing clouds.3 mph100%29.86 "Hg2 mi
1:30 AM75 °FLight rain. Passing clouds.7 mph100%29.86 "Hg2 mi
1:00 AM75 °FLight rain. Passing clouds.7 mph100%29.86 "Hg2 mi
12:30 AM75 °FRain. Passing clouds.3 mph100%29.89 "Hg1 mi
12:00 AM75 °FRain. Passing clouds.7 mph100%29.89 "Hg1 mi
11:30 PM
Tue, Aug 4
75 °FRain. Passing clouds.7 mph100%29.89 "Hg1 mi
11:00 PM75 °FRain. Partly cloudy.3 mph100%29.89 "Hg1 mi
10:30 PM73 °FRain. Partly cloudy.1 mph100%29.89 "Hg1 mi
10:00 PM73 °FRain. Partly cloudy.2 mph100%29.89 "Hg1 mi
9:30 PM75 °FRain. Partly cloudy.2 mph100%29.89 "Hg1 mi
9:00 PM75 °FRain. Partly cloudy.7 mph100%29.89 "Hg2 mi
8:30 PM75 °FRain. Partly cloudy.5 mph100%29.89 "Hg2 mi
8:00 PM77 °FThunderstorms. Passing clouds.7 mph94%29.86 "Hg4 mi
7:30 PM75 °FThunderstorms. Partly cloudy.3 mph100%29.86 "Hg3 mi
7:00 PM77 °FThunderstorms. Partly cloudy.9 mph94%29.83 "Hg1 mi
6:30 PM81 °FThunderstorms. Broken clouds.8 mph84%29.80 "Hg2 mi
6:00 PM82 °FBroken clouds.6 mph84%29.80 "Hg6 mi
5:30 PM82 °FPartly sunny.6 mph84%29.80 "HgN/A
5:00 PM84 °FPartly sunny.6 mph79%29.77 "HgN/A
4:30 PM84 °FPartly sunny.6 mph79%29.77 "HgN/A
4:00 PM84 °FPartly sunny.6 mph84%29.77 "HgN/A
3:30 PM84 °FPartly sunny.6 mph84%29.77 "HgN/A
3:00 PM82 °FPartly sunny.7 mph89%29.77 "HgN/A
2:30 PM82 °FLight rain. Broken clouds.6 mph89%29.80 "HgN/A
2:00 PM82 °FSprinkles. Broken clouds.3 mph84%29.80 "Hg5 mi
1:30 PM84 °FSprinkles. Broken clouds.12 mph79%29.80 "Hg3 mi
1:00 PM84 °FSprinkles. Broken clouds.6 mph79%29.80 "Hg6 mi
12:30 PM86 °FSprinkles. Broken clouds.8 mph70%29.80 "Hg6 mi
12:00 PM88 °FBroken clouds.9 mph66%29.83 "HgN/A
11:30 AM88 °FBroken clouds.8 mph66%29.83 "HgN/A
11:00 AM86 °FBroken clouds.7 mph70%29.83 "HgN/A
10:30 AM86 °FPartly sunny.7 mph70%29.86 "HgN/A
10:00 AM84 °FPartly sunny.6 mph74%29.86 "HgN/A
9:30 AM84 °FPartly sunny.7 mph74%29.86 "HgN/A
9:00 AM82 °FBroken clouds.7 mph79%29.86 "HgN/A
8:30 AM82 °FBroken clouds.8 mph79%29.83 "HgN/A
8:00 AM81 °FBroken clouds.7 mph84%29.83 "HgN/A
7:30 AM77 °FBroken clouds.6 mph94%29.83 "HgN/A
7:00 AM75 °FPartly sunny.3 mph100%29.83 "HgN/A
6:30 AM75 °FPartly sunny.6 mph100%29.83 "HgN/A
6:00 AM75 °FPassing clouds.5 mph94%29.83 "HgN/A
Weather by CustomWeather, © 2015

See weather overviewHow to use our weather pages